SCP
0 0 0 0 0 -0 0 -0 0 0 0 0 0 0 0 1 1 1 1 0 0 0 0 0 0 0 0 0 0 0 0 0 0 0 0 0 0 0 1 0 0 1 1 0
0 0 0 0 0 0 0 0 0 0 0 0 0 0 0 0 0 0 0 0 0 0 0 0 0 0 0 0 0 0 0 0 0 0 0 0 0 0 0 0 0 0 0 0
0 0 0 0 0 0 0 0 0 0 0 0 0 0 0 0 0 0 0 0 0 0 0 0 0 0 0 0 0 0 0 0 0 0 0 0 0 0 0 -0 0 0 0 0
0 0 0 0 0 0 0 0 0 0 0 0 0 0 0 0 0 0 0 0 0 0 0 0 0 0 0 0 0 0 0 0 0 0 0 0 0 0 0 0 0 0 0 0
0 0 0 0 0 0 0 0 0 0 0 0 0 0 0 0 0 0 0 0 0 0 0 0 0 0 0 0 0 0 0 0 0 0 0 0 0 0 0 0 0 0 0 0
0 0 0 0 0 0 0 0 0 0 0 0 0 0 0 0 0 0 0 0 0 0 0 0 0 0 0 0 0 0 0 0 0 0 0 0 0 0 0 0 0 0 0 0
0 0 0 0 0 0 0 0 0 0 0 0 0 0 0 0 0 0 0 0 0 0 0 0 0 0 0 0 0 0 0 0 0 0 0 0 0 0 0 0 0 0 0 0
0 0 0 0 0 0 0 0 0 0 0 0 0 0 0 0 0 0 0 0 0 0 0 0 0 0 0 0 0 0 0 0 0 0 0 0 0 0 0 0 0 0 0 0
0 0 0 0 0 0 0 0 0 0 0 0 0 0 0 0 0 0 0 0 0 0 0 0 0 0 0 0 0 0 0 0 0 0 0 0 0 0 0 0 0 0 0 0
0 0 0 0 0 0 0 0 0 0 0 0 0 0 0 0 0 0 0 0 0 0 0 0 0 0 0 0 0 0 0 0 0 0 0 0 0 0 0 0 0 0 0 0
0 0 0 0 0 0 0 0 0 0 0 0 0 0 0 0 0 0 0 0 0 0 0 0 0 0 0 0 0 0 0 0 0 0 0 0 0 0 0 0 0 0 0 0
0 0 0 0 0 0 0 0 0 0 0 0 0 0 0 0 0 0 0 0 0 0 0 0 0 0 0 0 0 0 0 0 0 0 0 0 0 0 0 0 0 0 0 0
0 0 0 0 0 0 0 0 0 0 0 0 0 0 0 0 0 0 0 0 0 0 0 0 0 0 0 0 0 0 0 0 0 0 0 0 0 0 0 0 0 0 0 0
0 0 0 0 0 0 0 0 0 0 0 0 0 0 0 0 0 0 0 0 0 0 0 0 0 0 0 0 0 0 0 0 0 0 0 0 0 0 0 0 0 0 0 0
0 0 0 0 0 0 0 0 0 0 0 0 0 0 0 0 0 0 0 0 0 0 0 0 0 0 0 0 0 0 0 0 0 0 0 0 0 0 0 0 0 0 0 0
0 0 0 0 0 0 0 0 0 0 0 0 0 0 0 0 0 0 0 0 0 0 0 0 0 0 0 0 0 0 0 0 0 0 0 0 0 0 0 0 0 0 0 0
0 0 0 0 0 0 0 0 0 0 0 0 0 0 0 0 0 0 0 0 0 0 0 0 0 0 0 0 0 0 0 0 0 -0 -0 0 0 0 0 0 0 0 0 0
0 0 0 0 0 0 0 0 0 0 0 0 0 0 0 0 0 0 0 0 0 0 0 0 0 0 0 0 0 0 0 0 0 -0 -0 0 0 0 0 0 0 0 0 0
0 0 0 0 0 0 0 0 0 0 0 0 0 0 0 0 0 0 0 0 0 0 0 0 -0 0 0 0 -0 0 0 0 -0 -0 -0 0 0 0 0 0 0 0 0 0
0 0 0 0 0 0 0 0 0 0 0 0 0 0 0 0 0 0 0 0 0 0 0 0 0 0 0 0 -0 0 0 0 0 0 0 0 0 0 0 0 0 0 0 0
0 0 0 0 0 0 0 0 0 0 0 0 0 -0 0 -0 0 0 0 0 0 0 0 0 0 0 0 0 0 0 0 0 0 0 0 0 0 0 0 0 0 0 0 0
0 0 0 0 0 0 0 0 0 -0 -0 0 -0 0 0 0 0 0 0 0 0 0 0 0 0 0 0 0 0 0 0 0 0 0 0 0 0 0 0 0 0 0 0 0
0 0 0 0 0 0 0 0 0 0 -0 -0 -0 -0 0 0 0 0 0 0 0 0 0 0 0 0 0 0 0 0 0 0 0 0 0 0 0 -0 -0 -0 0 0 0 0
0 0 -0 0 0 0 0 -0 0 0 0 0 0 0 0 0 0 0 0 0 0 0 0 0 0 -0 -0 0 0 0 0 0 0 0 0 0 0 0 0 -0 -0 -0 -0 0
0 0 0 0 0 0 0 0 0 0 0 0 -0 -0 0 0 0 0 0 0 0 0 0 0 0 0 0 0 -0 -0 0 0 0 0 0 0 0 0 0 0 -0 -0 -0 -0
0 0 0 0 0 0 0 0 0 -0 -0 0 0 0 0 0 0 0 0 0 0 0 0 0 0 0 0 0 0 0 0 0 0 0 0 0 0 0 0 0 -0 -0 -0 -0
0 0 0 0 0 0 0 0 0 0 0 0 0 0 0 0 0 0 0 0 0 0 0 0 0 0 0 0 0 0 0 0 0 0 0 0 0 0 0 0 0 0 0 -0
Wind_Speed_500mb
4 2 4 10 6 6 9 10 10 8 11 4 5 11 14 31 28 28 29 26 18 14 14 14 13 14 19 18 19 21 22 23 22 19 21 22 23 20 17 16 13 13 12 21
12 12 13 9 22 10 9 10 16 16 12 7 28 46 50 31 21 18 5 10 16 23 26 26 30 33 37 38 36 38 28 24 26 22 31 33 33 32 29 25 24 20 18 12
1 9 7 12 14 7 10 10 11 9 6 13 21 34 37 35 34 27 22 23 25 23 22 24 25 26 29 32 34 35 42 41 36 35 38 39 41 44 41 35 33 34 33 28
7 3 7 11 4 23 28 20 18 22 15 15 33 42 37 31 26 24 22 21 21 22 23 23 23 27 33 33 36 39 43 45 45 45 41 43 39 40 43 40 34 35 38 44
8 7 5 8 11 6 7 6 8 13 10 9 2 4 28 26 24 22 24 26 30 35 39 39 42 44 43 37 34 38 46 54 55 52 53 53 50 45 43 44 43 44 43 43
5 10 14 11 3 9 15 2 2 15 11 10 12 6 7 20 19 24 30 36 43 49 54 58 60 61 63 60 56 52 50 47 41 37 44 52 55 51 51 54 56 56 54 54
5 4 11 8 2 24 6 11 20 16 15 10 6 6 2 9 17 26 35 43 48 51 51 49 48 47 50 55 59 61 62 60 53 53 53 51 50 49 53 59 61 64 69 67
6 7 9 2 3 10 16 28 25 22 17 15 11 7 3 17 31 40 46 47 45 48 48 41 39 43 49 53 56 57 60 64 59 57 59 61 69 70 70 68 69 71 75 78
9 8 6 5 24 38 30 32 26 19 11 4 3 10 19 28 36 42 41 38 41 45 50 51 51 50 55 52 54 55 54 52 53 56 58 59 61 66 68 68 66 70 73 79
8 7 5 28 25 25 25 27 18 11 3 2 6 14 22 30 33 36 37 37 40 48 52 54 52 54 52 50 51 57 56 55 55 57 57 51 50 56 61 61 68 71 69 75
4 1 11 14 31 34 25 19 12 10 5 8 14 21 26 26 27 28 30 32 38 40 44 44 47 50 53 54 61 64 64 64 67 65 59 57 53 50 48 49 50 55 57 57
10 34 13 27 28 21 20 18 12 5 6 13 20 21 21 21 23 25 27 30 34 37 41 47 56 61 68 75 73 66 66 65 63 61 56 49 54 52 47 47 49 51 56 54
17 46 37 35 25 19 19 15 6 5 11 16 19 19 19 21 25 26 28 32 37 43 49 56 62 70 79 86 71 61 61 61 60 56 48 44 40 47 49 52 47 46 47 54
52 60 40 39 23 23 14 9 4 6 12 17 16 18 22 26 28 35 42 47 46 47 53 60 67 72 80 74 66 68 66 57 51 50 46 41 40 33 44 43 40 40 29 33
57 19 32 37 34 22 11 5 5 11 14 19 22 21 20 21 24 30 37 46 55 59 60 59 65 72 81 72 69 67 58 53 50 42 34 24 23 33 34 35 34 34 30 26
40 37 38 32 25 16 8 9 11 19 24 24 22 21 23 26 29 30 36 46 62 64 62 63 64 69 75 73 68 57 58 52 45 39 40 38 30 31 29 29 32 32 32 32
51 42 35 29 21 14 9 11 19 23 23 20 19 17 16 17 25 32 38 44 54 58 59 61 60 63 71 71 63 53 52 56 54 49 42 35 30 28 29 30 27 29 28 29
16 20 17 13 18 13 15 20 20 21 22 15 12 13 16 21 23 26 35 42 51 60 61 62 59 58 58 65 66 61 59 56 54 48 43 42 39 35 33 33 31 30 31 33
20 24 21 14 10 14 19 21 19 21 16 15 14 12 19 23 30 25 30 35 47 60 61 59 61 59 57 57 56 66 73 76 76 71 61 49 41 37 36 33 32 29 25 24
26 22 17 13 15 16 25 23 21 18 16 14 13 11 10 19 27 28 32 34 40 51 56 54 59 61 61 58 56 58 60 63 64 67 74 78 70 56 45 39 34 30 28 26
28 23 17 18 27 29 28 26 24 18 12 9 9 18 10 13 18 26 33 34 39 44 55 54 58 59 61 59 58 60 59 58 59 61 61 65 71 76 74 65 54 45 39 36
27 22 21 29 30 30 27 22 19 16 11 8 11 15 14 11 17 19 25 32 37 40 51 58 59 58 57 57 57 57 57 57 57 58 58 59 61 62 66 71 74 70 63 59
26 21 26 29 23 20 15 13 11 10 10 10 13 13 15 18 18 24 27 30 33 37 41 48 54 57 57 57 57 56 56 56 57 56 55 55 56 56 57 59 61 61 64 67
26 30 29 22 17 18 13 10 11 12 5 4 8 9 12 16 16 19 26 32 36 36 36 38 44 51 57 59 58 57 55 54 53 52 52 52 53 54 54 55 56 54 54 58
25 27 26 22 21 15 14 5 5 10 2 4 11 14 17 18 21 25 28 29 32 36 37 36 36 39 46 53 57 57 57 56 54 53 51 49 49 49 50 51 52 54 55 56
29 28 22 20 20 17 14 8 7 7 7 4 7 11 16 21 23 25 24 32 35 32 31 33 37 35 36 42 49 53 53 53 56 55 53 52 49 47 46 46 47 49 51 54
24 20 23 16 17 21 8 6 2 5 10 18 23 21 21 30 18 19 24 31 35 29 25 24 28 38 38 36 38 46 52 52 50 51 54 53 52 50 48 46 45 46 46 49
Wind_Direction_500mb
144 215 121 69 74 212 122 171 159 184 112 314 27 85 105 131 139 148 170 195 219 246 271 280 276 271 272 272 280 281 281 297 303 313 329 342 344 340 339 332 325 326 318 271
17 354 60 62 21 93 26 100 77 109 86 34 66 74 61 66 82 66 17 298 303 319 324 310 297 288 283 272 279 274 264 277 286 288 302 312 318 321 316 313 309 304 302 298
229 346 36 14 336 49 46 15 130 127 93 115 84 85 83 80 78 72 52 33 21 5 352 340 334 325 317 314 296 286 266 271 272 281 286 283 294 304 307 302 291 285 283 280
167 14 47 228 133 87 86 49 54 79 94 114 107 83 66 58 58 51 39 25 12 356 342 336 319 302 299 292 288 289 281 277 272 268 268 271 277 280 284 282 286 288 279 276
107 70 37 283 261 257 114 16 359 96 89 98 167 50 52 52 31 24 10 356 342 334 327 318 314 313 313 307 306 294 285 277 274 273 270 270 264 265 272 273 279 286 282 280
107 134 197 226 219 143 115 316 187 124 104 67 42 13 286 3 352 345 339 335 330 325 319 314 310 307 303 298 295 294 295 291 289 289 278 272 270 267 271 274 275 274 278 278
100 119 286 231 353 153 127 225 155 132 119 131 140 171 263 313 333 338 338 335 330 325 324 325 326 324 316 310 304 298 293 288 287 278 275 272 272 272 270 266 265 266 268 271
93 90 253 76 168 182 152 131 142 140 137 128 133 159 322 335 336 335 333 333 335 335 335 341 338 332 326 324 324 317 302 296 290 281 274 274 273 270 269 267 266 263 263 263
164 209 288 99 132 128 136 140 150 137 125 114 50 345 337 336 335 333 334 341 346 351 346 348 345 342 334 332 326 317 317 310 297 290 288 286 282 276 274 272 270 265 263 263
92 279 127 118 122 129 131 130 130 116 77 353 359 346 339 336 337 345 349 347 348 341 337 332 329 326 321 318 310 303 307 304 305 305 297 296 296 286 278 273 269 267 269 264
45 195 128 128 140 139 133 126 131 128 87 23 351 343 343 351 355 349 351 352 351 346 343 337 338 345 344 336 326 317 307 299 295 295 297 298 295 293 286 279 274 275 272 270
199 188 151 150 145 149 141 137 126 100 17 351 350 359 6 3 356 0 4 13 7 357 3 1 354 349 346 345 337 331 322 316 309 299 286 288 294 294 293 286 283 271 265 262
146 155 139 139 143 151 143 133 113 7 3 11 18 22 25 30 37 33 27 16 5 5 1 359 357 356 350 344 342 335 329 324 320 316 305 277 289 303 293 304 292 281 268 255
140 137 123 143 150 149 138 118 68 36 54 56 48 53 64 61 51 42 35 26 15 7 2 360 359 357 351 348 346 343 338 333 325 317 307 296 273 295 296 298 296 302 276 267
145 167 162 151 150 144 135 132 138 108 102 100 86 81 63 47 36 31 25 21 16 11 8 3 360 359 357 354 354 352 350 349 343 330 316 314 298 301 296 297 297 302 304 283
145 142 144 153 151 146 150 144 138 111 106 104 95 77 61 49 39 30 22 18 15 8 7 6 3 5 3 2 358 2 15 17 12 11 16 13 6 355 331 309 299 299 301 297
141 147 160 161 166 160 158 143 122 117 115 101 84 69 46 33 34 31 28 21 17 9 11 8 3 6 11 15 3 5 9 11 17 17 15 3 6 357 350 346 331 311 305 300
169 155 163 165 170 176 155 136 126 127 124 104 75 52 31 20 10 14 14 12 11 11 12 11 7 5 10 21 21 27 29 23 18 14 7 3 1 354 348 339 332 320 307 314
157 164 159 164 171 164 146 130 120 135 114 91 66 57 39 29 21 13 3 360 6 8 9 11 13 11 12 19 20 33 39 40 37 31 21 6 352 355 355 352 346 335 335 333
158 160 161 157 146 144 132 128 125 119 109 85 57 31 22 30 22 12 9 10 8 7 7 10 14 16 16 17 19 24 28 29 33 34 35 34 29 20 12 3 359 346 341 336
167 162 157 147 138 130 119 110 109 105 101 68 37 20 17 18 20 17 25 26 22 14 16 15 14 16 16 16 18 23 25 28 30 31 30 34 37 37 32 33 27 22 17 8
166 161 152 148 141 132 127 120 110 98 96 59 36 34 34 17 14 12 8 15 21 19 19 21 19 15 14 15 16 19 22 24 26 29 30 30 30 32 36 35 35 32 38 42
163 155 156 157 151 136 137 149 148 120 96 66 55 39 21 21 3 2 8 3 1 11 14 17 21 20 17 15 16 17 18 20 22 23 25 28 29 30 30 33 32 29 26 29
158 151 145 149 160 171 188 188 208 201 178 14 10 352 10 17 13 358 353 353 348 343 354 1 12 21 26 24 21 18 17 18 17 17 19 20 22 25 25 27 25 26 23 19
155 155 168 181 176 182 193 205 203 161 132 312 315 307 309 311 326 346 345 333 331 339 336 340 348 6 17 24 25 22 20 18 17 17 16 15 16 18 20 21 23 24 25 28
171 182 187 203 204 191 177 173 112 146 189 259 324 348 344 344 319 312 336 335 341 326 337 328 332 338 355 7 16 19 19 18 19 18 17 17 15 14 14 15 16 17 18 19
179 183 173 165 184 184 201 198 216 252 289 301 300 302 325 342 348 340 326 333 335 342 355 352 346 335 334 340 355 9 15 16 14 14 17 18 17 17 16 13 12 11 12 14
Wind_Speed_850mb
4 2 4 10 6 6 9 10 10 8 11 4 5 11 14 31 28 28 29 26 18 14 14 14 13 14 19 18 19 21 22 23 22 19 21 22 23 20 17 16 13 13 12 21
12 12 13 9 22 10 9 10 16 16 12 7 28 46 50 31 21 18 5 10 16 23 26 26 30 33 37 38 36 38 28 24 26 22 31 33 33 32 29 25 24 20 18 12
1 9 7 12 14 7 10 10 11 9 6 13 21 34 37 35 34 27 22 23 25 23 22 24 25 26 29 32 34 35 42 41 36 35 38 39 41 44 41 35 33 34 33 28
7 3 7 11 4 23 28 20 18 22 15 15 33 42 37 31 26 24 22 21 21 22 23 23 23 27 33 33 36 39 43 45 45 45 41 43 39 40 43 40 34 35 38 44
8 7 5 8 11 6 7 6 8 13 10 9 2 4 28 26 24 22 24 26 30 35 39 39 42 44 43 37 34 38 46 54 55 52 53 53 50 45 43 44 43 44 43 43
5 10 14 11 3 9 15 2 2 15 11 10 12 6 7 20 19 24 30 36 43 49 54 58 60 61 63 60 56 52 50 47 41 37 44 52 55 51 51 54 56 56 54 54
5 4 11 8 2 24 6 11 20 16 15 10 6 6 2 9 17 26 35 43 48 51 51 49 48 47 50 55 59 61 62 60 53 53 53 51 50 49 53 59 61 64 69 67
6 7 9 2 3 10 16 28 25 22 17 15 11 7 3 17 31 40 46 47 45 48 48 41 39 43 49 53 56 57 60 64 59 57 59 61 69 70 70 68 69 71 75 78
9 8 6 5 24 38 30 32 26 19 11 4 3 10 19 28 36 42 41 38 41 45 50 51 51 50 55 52 54 55 54 52 53 56 58 59 61 66 68 68 66 70 73 79
8 7 5 28 25 25 25 27 18 11 3 2 6 14 22 30 33 36 37 37 40 48 52 54 52 54 52 50 51 57 56 55 55 57 57 51 50 56 61 61 68 71 69 75
4 1 11 14 31 34 25 19 12 10 5 8 14 21 26 26 27 28 30 32 38 40 44 44 47 50 53 54 61 64 64 64 67 65 59 57 53 50 48 49 50 55 57 57
10 34 13 27 28 21 20 18 12 5 6 13 20 21 21 21 23 25 27 30 34 37 41 47 56 61 68 75 73 66 66 65 63 61 56 49 54 52 47 47 49 51 56 54
17 46 37 35 25 19 19 15 6 5 11 16 19 19 19 21 25 26 28 32 37 43 49 56 62 70 79 86 71 61 61 61 60 56 48 44 40 47 49 52 47 46 47 54
52 60 40 39 23 23 14 9 4 6 12 17 16 18 22 26 28 35 42 47 46 47 53 60 67 72 80 74 66 68 66 57 51 50 46 41 40 33 44 43 40 40 29 33
57 19 32 37 34 22 11 5 5 11 14 19 22 21 20 21 24 30 37 46 55 59 60 59 65 72 81 72 69 67 58 53 50 42 34 24 23 33 34 35 34 34 30 26
40 37 38 32 25 16 8 9 11 19 24 24 22 21 23 26 29 30 36 46 62 64 62 63 64 69 75 73 68 57 58 52 45 39 40 38 30 31 29 29 32 32 32 32
51 42 35 29 21 14 9 11 19 23 23 20 19 17 16 17 25 32 38 44 54 58 59 61 60 63 71 71 63 53 52 56 54 49 42 35 30 28 29 30 27 29 28 29
16 20 17 13 18 13 15 20 20 21 22 15 12 13 16 21 23 26 35 42 51 60 61 62 59 58 58 65 66 61 59 56 54 48 43 42 39 35 33 33 31 30 31 33
20 24 21 14 10 14 19 21 19 21 16 15 14 12 19 23 30 25 30 35 47 60 61 59 61 59 57 57 56 66 73 76 76 71 61 49 41 37 36 33 32 29 25 24
26 22 17 13 15 16 25 23 21 18 16 14 13 11 10 19 27 28 32 34 40 51 56 54 59 61 61 58 56 58 60 63 64 67 74 78 70 56 45 39 34 30 28 26
28 23 17 18 27 29 28 26 24 18 12 9 9 18 10 13 18 26 33 34 39 44 55 54 58 59 61 59 58 60 59 58 59 61 61 65 71 76 74 65 54 45 39 36
27 22 21 29 30 30 27 22 19 16 11 8 11 15 14 11 17 19 25 32 37 40 51 58 59 58 57 57 57 57 57 57 57 58 58 59 61 62 66 71 74 70 63 59
26 21 26 29 23 20 15 13 11 10 10 10 13 13 15 18 18 24 27 30 33 37 41 48 54 57 57 57 57 56 56 56 57 56 55 55 56 56 57 59 61 61 64 67
26 30 29 22 17 18 13 10 11 12 5 4 8 9 12 16 16 19 26 32 36 36 36 38 44 51 57 59 58 57 55 54 53 52 52 52 53 54 54 55 56 54 54 58
25 27 26 22 21 15 14 5 5 10 2 4 11 14 17 18 21 25 28 29 32 36 37 36 36 39 46 53 57 57 57 56 54 53 51 49 49 49 50 51 52 54 55 56
29 28 22 20 20 17 14 8 7 7 7 4 7 11 16 21 23 25 24 32 35 32 31 33 37 35 36 42 49 53 53 53 56 55 53 52 49 47 46 46 47 49 51 54
24 20 23 16 17 21 8 6 2 5 10 18 23 21 21 30 18 19 24 31 35 29 25 24 28 38 38 36 38 46 52 52 50 51 54 53 52 50 48 46 45 46 46 49
Wind_Direction_850mb
144 215 121 69 74 212 122 171 159 184 112 314 27 85 105 131 139 148 170 195 219 246 271 280 276 271 272 272 280 281 281 297 303 313 329 342 344 340 339 332 325 326 318 271
17 354 60 62 21 93 26 100 77 109 86 34 66 74 61 66 82 66 17 298 303 319 324 310 297 288 283 272 279 274 264 277 286 288 302 312 318 321 316 313 309 304 302 298
229 346 36 14 336 49 46 15 130 127 93 115 84 85 83 80 78 72 52 33 21 5 352 340 334 325 317 314 296 286 266 271 272 281 286 283 294 304 307 302 291 285 283 280
167 14 47 228 133 87 86 49 54 79 94 114 107 83 66 58 58 51 39 25 12 356 342 336 319 302 299 292 288 289 281 277 272 268 268 271 277 280 284 282 286 288 279 276
107 70 37 283 261 257 114 16 359 96 89 98 167 50 52 52 31 24 10 356 342 334 327 318 314 313 313 307 306 294 285 277 274 273 270 270 264 265 272 273 279 286 282 280
107 134 197 226 219 143 115 316 187 124 104 67 42 13 286 3 352 345 339 335 330 325 319 314 310 307 303 298 295 294 295 291 289 289 278 272 270 267 271 274 275 274 278 278
100 119 286 231 353 153 127 225 155 132 119 131 140 171 263 313 333 338 338 335 330 325 324 325 326 324 316 310 304 298 293 288 287 278 275 272 272 272 270 266 265 266 268 271
93 90 253 76 168 182 152 131 142 140 137 128 133 159 322 335 336 335 333 333 335 335 335 341 338 332 326 324 324 317 302 296 290 281 274 274 273 270 269 267 266 263 263 263
164 209 288 99 132 128 136 140 150 137 125 114 50 345 337 336 335 333 334 341 346 351 346 348 345 342 334 332 326 317 317 310 297 290 288 286 282 276 274 272 270 265 263 263
92 279 127 118 122 129 131 130 130 116 77 353 359 346 339 336 337 345 349 347 348 341 337 332 329 326 321 318 310 303 307 304 305 305 297 296 296 286 278 273 269 267 269 264
45 195 128 128 140 139 133 126 131 128 87 23 351 343 343 351 355 349 351 352 351 346 343 337 338 345 344 336 326 317 307 299 295 295 297 298 295 293 286 279 274 275 272 270
199 188 151 150 145 149 141 137 126 100 17 351 350 359 6 3 356 0 4 13 7 357 3 1 354 349 346 345 337 331 322 316 309 299 286 288 294 294 293 286 283 271 265 262
146 155 139 139 143 151 143 133 113 7 3 11 18 22 25 30 37 33 27 16 5 5 1 359 357 356 350 344 342 335 329 324 320 316 305 277 289 303 293 304 292 281 268 255
140 137 123 143 150 149 138 118 68 36 54 56 48 53 64 61 51 42 35 26 15 7 2 360 359 357 351 348 346 343 338 333 325 317 307 296 273 295 296 298 296 302 276 267
145 167 162 151 150 144 135 132 138 108 102 100 86 81 63 47 36 31 25 21 16 11 8 3 360 359 357 354 354 352 350 349 343 330 316 314 298 301 296 297 297 302 304 283
145 142 144 153 151 146 150 144 138 111 106 104 95 77 61 49 39 30 22 18 15 8 7 6 3 5 3 2 358 2 15 17 12 11 16 13 6 355 331 309 299 299 301 297
141 147 160 161 166 160 158 143 122 117 115 101 84 69 46 33 34 31 28 21 17 9 11 8 3 6 11 15 3 5 9 11 17 17 15 3 6 357 350 346 331 311 305 300
169 155 163 165 170 176 155 136 126 127 124 104 75 52 31 20 10 14 14 12 11 11 12 11 7 5 10 21 21 27 29 23 18 14 7 3 1 354 348 339 332 320 307 314
157 164 159 164 171 164 146 130 120 135 114 91 66 57 39 29 21 13 3 360 6 8 9 11 13 11 12 19 20 33 39 40 37 31 21 6 352 355 355 352 346 335 335 333
158 160 161 157 146 144 132 128 125 119 109 85 57 31 22 30 22 12 9 10 8 7 7 10 14 16 16 17 19 24 28 29 33 34 35 34 29 20 12 3 359 346 341 336
167 162 157 147 138 130 119 110 109 105 101 68 37 20 17 18 20 17 25 26 22 14 16 15 14 16 16 16 18 23 25 28 30 31 30 34 37 37 32 33 27 22 17 8
166 161 152 148 141 132 127 120 110 98 96 59 36 34 34 17 14 12 8 15 21 19 19 21 19 15 14 15 16 19 22 24 26 29 30 30 30 32 36 35 35 32 38 42
163 155 156 157 151 136 137 149 148 120 96 66 55 39 21 21 3 2 8 3 1 11 14 17 21 20 17 15 16 17 18 20 22 23 25 28 29 30 30 33 32 29 26 29
158 151 145 149 160 171 188 188 208 201 178 14 10 352 10 17 13 358 353 353 348 343 354 1 12 21 26 24 21 18 17 18 17 17 19 20 22 25 25 27 25 26 23 19
155 155 168 181 176 182 193 205 203 161 132 312 315 307 309 311 326 346 345 333 331 339 336 340 348 6 17 24 25 22 20 18 17 17 16 15 16 18 20 21 23 24 25 28
171 182 187 203 204 191 177 173 112 146 189 259 324 348 344 344 319 312 336 335 341 326 337 328 332 338 355 7 16 19 19 18 19 18 17 17 15 14 14 15 16 17 18 19
179 183 173 165 184 184 201 198 216 252 289 301 300 302 325 342 348 340 326 333 335 342 355 352 346 335 334 340 355 9 15 16 14 14 17 18 17 17 16 13 12 11 12 14